• Processing (Info)

  • MPEC 2017-V27 : 2017 VJ

    The following Minor Planet Electronic Circular may be linked-to from your own Web pages, but must not otherwise be redistributed electronically.

    A form allowing access to any MPEC is at the bottom of this page.


    Read MPEC 2017-V26 Read MPEC 2017-V28


    M.P.E.C. 2017-V27                                Issued 2017 Nov. 8, 17:47 UT
    
         The Minor Planet Electronic Circulars contain information on unusual
             minor planets and routine data on comets.  They are published
        on behalf of Division F of the International Astronomical Union by the
              Minor Planet Center, Smithsonian Astrophysical Observatory,
                              Cambridge, MA 02138, U.S.A.
    
                 Prepared using the Tamkin Foundation Computer Network
    
                                  MPC@CFA.HARVARD.EDU
                URL https://www.minorplanetcenter.net/    ISSN 1523-6714
    
                                        2017 VJ
    
    Observations:
         K17V00J* C2017 11 05.41077 02 29 20.75 +04 39 56.3          18.0 o EV027T05
         K17V00J  C2017 11 05.41734 02 29 22.55 +04 39 56.8          18.1 o EV027T05
         K17V00J  C2017 11 05.42564 02 29 24.89 +04 39 57.3          17.9 o EV027T05
         K17V00J  C2017 11 05.43401 02 29 27.20 +04 39 59.1          18.1 o EV027T05
         K17V00J  C2017 11 06.39954 02 34 22.48 +04 41 44.8          18.0 RoEV027926
         K17V00J  C2017 11 06.40581 02 34 23.86 +04 41 45.9          18.2 RoEV027926
         K17V00J  C2017 11 06.41203 02 34 25.20 +04 41 46.2          17.9 RoEV027926
         K17V00J KC2017 11 08.14223 02 40 33.91 +04 44 53.3                UEV027J95
         K17V00J KC2017 11 08.15524 02 40 35.86 +04 44 54.0          19.1 GUEV027J95
         K17V00J KC2017 11 08.54729 02 41 45.05 +04 49 06.6          19.5 VqEV027E23
         K17V00J KC2017 11 08.55771 02 41 46.13 +04 49 07.6          18.9 VqEV027E23
    
    Observer details:
    926 Tenagra II Observatory.  Observers M. Schwartz, P. R. Holvorcem.  Measurer
        M. Schwartz.  0.81-m f/7 Ritchey-Chretien + CCD.
    E23 Arcadia.  Observer A. Hidas.  0.35-m f/1.9 reflector + CCD.
    J95 Great Shefford.  Observer P. Birtwhistle.  0.40-m f/6.0 Schmidt-Cassegrain
        + CCD.
    T05 ATLAS-HKO, Haleakala.  Observers L. Denneau, A. Heinze, H. Weiland,
        J. Tonry.  Measurers L. Denneau, H. Flewelling, A. Heinze, B. Stalder,
        J. Tonry.  0.5-m f/2.0 Schmidt + CCD.
    
    Orbital elements:
    2017 VJ                                                  Earth MOID = 0.0019 AU
    Epoch 2017 Sept. 4.0 TT = JDT 2458000.5                 MPC
    M 356.80082              (2000.0)            P               Q
    n   0.64879049     Peri.  106.35753     +0.81196886     +0.58173536
    a   1.3214977      Node   218.10664     -0.56076513     +0.75467863
    e   0.3972458      Incl.    4.44788     -0.16201555     +0.30338777
    P   1.52           H   24.5           G   0.15           U   7
    Residuals in seconds of arc
    171105 T05  0.2-  0.6+    171106 926  0.2-  0.1-    171108 J95  0.1+  0.3-
    171105 T05  0.4-  0.0     171106 926  0.2+  0.5+    171108 E23  0.0   0.1+
    171105 T05  0.3+  0.8-    171106 926  0.1+  0.3+    171108 E23  0.2+  0.1-
    171105 T05  0.3+  0.2-    171108 J95  0.2-  0.2+
    
    Ephemeris:
    2017 VJ                  a,e,i = 1.32, 0.40, 4                   q = 0.7965
    Date    TT    R. A. (2000) Decl.     Delta      r     Elong.  Phase     V
    2017 10 09    15 05 11.2 -05 06 32   0.1522  0.8732    31.7   143.0    27.4
    ...
    2017 10 24    15 31 51.7 -04 45 27   0.04597 0.9533    25.2   153.6    26.9
    ...
    2017 11 01    00 45 54.7 +03 45 35   0.01044 1.0019   153.5    26.2    15.8
    ...
    2017 11 07    02 36 56.6 +04 44 30   0.04971 1.0397   168.2    11.2    18.8
    2017 11 08    02 40 14.7 +04 46 30   0.05652 1.0461   167.9    11.4    19.1
    2017 11 09    02 42 50.4 +04 48 31   0.06338 1.0525   167.6    11.7    19.3
    ...
    2017 11 15    02 51 20.4 +05 02 59   0.1054  1.0913   164.8    13.7    20.6
    ...
    2017 11 23    02 56 32.0 +05 32 12   0.1644  1.1432   159.7    17.4    21.8
    ...
    2017 12 08    03 04 38.9 +06 55 34   0.2877  1.2393   148.4    24.6    23.4
    
    A. U. Tomatic                (C) Copyright 2017 MPC           M.P.E.C. 2017-V27
    

    Read MPEC 2017-V26 Read MPEC 2017-V28


    MPEC number:

    Enter an MPEC number in one of the following forms:

    • 1997-B01 (the full form)
    • J97B01 (the packed version of the full form)
    • B01 (the abbreviated form)